Location: Clanezzo
(45.7500°N, 9.6000°E)
Time: 12:59:49
(UTC+00:00)

Cosmos 1818 - Pass Details

Date: 12 May 2021
Orbit: 771 x 802 km, 65.0° (Epoch: 19 June)

Event Time Altitude Azimuth Distance (km) Brightness Sun altitude
Rises 21:53:49 0° 324° (NW) 3,320 8.1 -23.1°
Reaches altitude 10° 21:56:15 10° 325° (NW) 2,387 7.1 -23.3°
Maximum altitude 22:01:47 83° 54° (NE) 813 3.5 -23.6°
Enters shadow 22:02:53 58° 132° (SE) 930 3.6 -23.7°
